AirNav   Air Wisconsin Up To $57,000 Bonus
 
 855 users online  

U08 Perkins Field Airport
Overton, Nevada, USA

GOING TO OVERTON?


FAA INFORMATION EFFECTIVE 19 MAY 2022

Location

FAA Identifier: U08
Lat/Long: 36-34-05.2000N 114-26-36.0000W
36-34.086667N 114-26.600000W
36.5681111,-114.4433333
(estimated)
Elevation: 1365.9 ft. / 416.3 m (surveyed)
Variation: 14E (1985)
From city: 2 miles N of OVERTON, NV
Time zone: UTC -7 (UTC -8 during Standard Time)
Zip code: 89021

Airport Operations

Airport use: Open to the public
Activation date: 06/1948
Control tower: no
ARTCC: LOS ANGELES CENTER
FSS: RENO FLIGHT SERVICE STATION
NOTAMs facility: RNO (NOTAM-D service available)
Attendance: THUR-MON DAYLIGHT HOURS
TUE & WED SVC AVBL ON CALL (702) 397-8457.
Pattern altitude: 2165.9 ft. MSL
Wind indicator: lighted
Segmented circle: yes
Lights: ACTVT MIRLS RY 13/31 - CTAF.
Beacon: white-green (lighted land airport)
Operates sunset to sunrise.

Airport Communications

CTAF/UNICOM: 122.8

Nearby radio navigation aids

VOR radial/distance  VOR name  Freq  Var
MMMr197/14.5MORMON MESA VORTAC114.3016E
BLDr016/39.9BOULDER CITY VORTAC116.7015E

Airport Services

Fuel available: 100LL
Oil available: ONLY ENOUGH OIL FOR ENG NEED, NO EXTRA SALES AVAILABLE.
Parking: tiedowns
Airframe service: NONE
Powerplant service: NONE
Bottled oxygen: NONE
Bulk oxygen: NONE

Runway Information

Runway 13/31

Dimensions: 4811 x 75 ft. / 1466 x 23 m
Surface: asphalt, in fair condition
Weight bearing capacity: 
Single wheel: 30.0
Runway edge lights: medium intensity
RUNWAY 13  RUNWAY 31
Latitude: 36-34.431133N36-33.741918N
Longitude: 114-26.842670W114-26.356943W
Elevation: 1365.9 ft.1348.8 ft.
Traffic pattern: leftright
Runway heading: 136 magnetic, 150 true316 magnetic, 330 true
Markings: nonprecision, in fair conditionnonprecision, in fair condition
Runway end identifier lights: nono
Touchdown point: yes, no lightsyes, no lights
Obstructions: 4 ft. fence, 380 ft. from runway, 45:1 slope to clear15 ft. road, 360 ft. from runway, 10:1 slope to clear

Airport Ownership and Management from official FAA records

Ownership: Publicly-owned
Owner: CLARK COUNTY
PO BOX 11005
LAS VEGAS, NV 89111-1005
Phone (702) 261-5100
Manager: KARINA TARNOWSKA
2730 AIRPORT DRIVE STE. 101
NORTH LAS VEGAS, NV 89032
Phone 702-261-3804

Airport Operational Statistics

Aircraft based on the field: 1
Multi engine airplanes: 1
    
Aircraft operations: avg 20/day *
49% transient general aviation
49% local general aviation
2% military
* for 12-month period ending 31 July 2018

Additional Remarks

ULTRALIGHT AND SKYDIVING ACTIVITY ONGOING ON OR NEAR THE ARPT.
SKYDIVING ACT ON/INVOF ARPT DLY SR-SS.
FOR CD CTC LOS ANGELES ARTCC AT 661-575-2079.

Instrument Procedures

There are no published instrument procedures at U08.

Some nearby airports with instrument procedures:

67L - Mesquite Airport (24 nm NE)
KLSV - Nellis Air Force Base (35 nm SW)
KVGT - North Las Vegas Airport (42 nm SW)
KBVU - Boulder City Municipal Airport (42 nm SW)
KLAS - Harry Reid International Airport (45 nm SW)
 
Loc | Ops | Rwys | IFR | FBO | Links
Com | Nav | Svcs | Stats | Notes
Area around U08 (Perkins Field Airport)
 
Road maps at: MapQuest Bing Google
 
Aerial photo
WARNING: Photo may not be current or correct
Aerial photo of U08 (Perkins Field Airport)
Photo courtesy of focalflight.com
Photo taken 09-Dec-2015
looking south.

Do you have a better or more recent aerial photo of Perkins Field Airport that you would like to share? If so, please send us your photo.

 
Sectional chart

 
Airport distance calculator
Flying to Perkins Field Airport? Find the distance to fly.

From to U08

Sunrise and sunset
Times for 19-May-2022
 Local
(UTC-7)
 Zulu
(UTC)
Morning civil twilight04:5911:59
Sunrise05:2912:29
Sunset19:4002:40
Evening civil twilight20:0903:09

Current date and time
Zulu (UTC)  20-May-2022 03:47:12
Local (UTC-7)  19-May-2022 20:47:12
 
METAR
KLSV 
35nm SW 
200258Z 21019G22KT 10SM CLR 36/M01 A2948 RMK AO2A SLP933 WND DATA ESTMD $
KBVU 
42nm SW 
200335Z AUTO 18018G26KT 10SM CLR 33/M04 A2951 RMK AO2
KVGT 
43nm SW 
200253Z 20009KT 10SM CLR 36/M02 A2948 RMK AO2 SLP968 T03611017 58018
KLAS 
45nm SW 
200256Z 23015G24KT 10SM FEW180 BKN220 35/M03 A2950 RMK AO2 PK WND 23026/0224 SLP956 T03501028 58021
KHND 
48nm SW 
200256Z 22020G25KT 10SM CLR 34/M02 A2954 RMK AO2 PK WND 23027/0243 SLP983 T03441017 56022
TAF
KLSV 
35nm SW 
192300Z 1923/2105 22015G25KT 9999 FEW250 520009 QNH2949INS TEMPO 2000/2003 23025G35KT 9000 BLDU 530009 BECMG 2003/2004 22025G38KT 9000 BLDU SCT250 530009 QNH2948INS BECMG 2007/2008 21012G20KT 9999 NSW SCT250 510009 QNH2948INS BECMG 2013/2014 01015G25KT 9999 FEW250 520009 QNH2949INS TEMPO 2015/2018 03025G35KT 9000 BLDU 530009 TX40/1923Z TN20/2013Z
KVGT 
43nm SW 
191720Z 1918/2018 19010KT P6SM SCT250 FM192000 22018G27KT P6SM SCT250 FM200400 19013G22KT P6SM FEW250 FM200800 34011KT P6SM FEW250 FM201200 34016G28KT P6SM FEW250
NOTAMs
Click for the latest NOTAMs
NOTAMs are issued by the DoD/FAA and will open in a separate window not controlled by AirNav.

 

 
 

FBO, Fuel Providers, and Aircraft Ground Support

  
 Business Name 
 
 Contact 
 
 Services / Description 
 
Fuel Prices
 
Comments
  
Perkins Field 702-397-2716 Airport management, Aviation fuel, Aircraft parking (ramp or tiedown)

More info about Perkins Field
World Fuel Services
100LL
SS $6.94 
 Updated 18-May-2022
 
   write
SS=Self service
Update Fuel Prices
 

Would you like to see your business listed on this page?

 If your business provides an interesting product or service to pilots, flight crews, aircraft, or users of the Perkins Field Airport, you should consider listing it here.  To start the listing process, click on the button below
 
Add a business
 

Other Pages about Perkins Field Airport

Update a link
 
Copyright © AirNav, LLC. All rights reserved. Privacy Policy  Contact